Location: Goettingen
(51.5300°N, 9.9433°E)
Time: 01:51:11
(UTC+02:00)

ISS - Pass Details

Date: 22 September 2018
Orbit: 403 x 409 km, 51.6° (Epoch: 24 September)

Event Time Altitude Azimuth Distance (km) Brightness Sun altitude
Rises 20:24:53 0° 195° (SSW) 2,323 0.0 -11.0°
Reaches altitude 10° 20:27:58 10° 163° (SSE) 1,467 -1.3 -11.5°
Enters shadow 20:28:50 12° 148° (SSE) 1,364 -1.6 -11.6°
